TimeCDT,TemperatureF,Dew PointF,Humidity,Sea Level PressureIn,VisibilityMPH,Wind Direction,Wind SpeedMPH,Gust SpeedMPH,PrecipitationIn,Events,Conditions,WindDirDegrees,DateUTC
12:53 AM,84.9,64.0,49,29.86,10.0,South,10.4,18.4,N/A,,Clear,180,2013-06-26 05:53:00
1:53 AM,82.9,64.9,54,29.84,10.0,South,9.2,20.7,N/A,,Clear,170,2013-06-26 06:53:00
2:53 AM,81.0,66.0,60,29.84,10.0,South,8.1,16.1,N/A,,Clear,180,2013-06-26 07:53:00
3:53 AM,80.1,66.0,62,29.84,10.0,South,11.5,19.6,N/A,,Clear,180,2013-06-26 08:53:00
4:53 AM,78.1,68.0,71,29.85,10.0,South,9.2,-,N/A,,Clear,180,2013-06-26 09:53:00
5:53 AM,77.0,69.1,76,29.87,10.0,South,8.1,19.6,N/A,,Clear,180,2013-06-26 10:53:00
6:53 AM,77.0,70.0,79,29.89,10.0,South,11.5,18.4,N/A,,Clear,180,2013-06-26 11:53:00
7:53 AM,78.1,70.0,76,29.91,10.0,South,9.2,18.4,N/A,,Partly Cloudy,180,2013-06-26 12:53:00
8:53 AM,81.0,70.0,69,29.93,10.0,South,12.7,23.0,N/A,,Partly Cloudy,190,2013-06-26 13:53:00
9:53 AM,82.9,70.0,65,29.93,10.0,South,13.8,23.0,N/A,,Clear,180,2013-06-26 14:53:00
10:53 AM,87.1,70.0,57,29.94,10.0,South,12.7,23.0,N/A,,Clear,180,2013-06-26 15:53:00
11:53 AM,88.0,70.0,55,29.94,10.0,SSW,10.4,18.4,N/A,,Clear,200,2013-06-26 16:53:00
12:53 PM,91.0,70.0,50,29.93,10.0,SSW,11.5,24.2,N/A,,Clear,200,2013-06-26 17:53:00
1:53 PM,93.0,71.1,49,29.91,10.0,South,12.7,21.9,N/A,,Clear,180,2013-06-26 18:53:00
2:53 PM,95.0,71.1,46,29.88,10.0,SSE,10.4,23.0,N/A,,Clear,160,2013-06-26 19:53:00
3:53 PM,95.0,71.1,46,29.86,10.0,Variable,5.8,16.1,N/A,,Clear,0,2013-06-26 20:53:00
4:53 PM,96.1,70.0,43,29.86,10.0,South,6.9,-,N/A,,Clear,180,2013-06-26 21:53:00
5:53 PM,96.1,69.1,41,29.84,10.0,South,9.2,17.3,N/A,,Clear,180,2013-06-26 22:53:00
6:53 PM,96.1,66.0,37,29.83,10.0,South,11.5,-,N/A,,Clear,170,2013-06-26 23:53:00
7:53 PM,93.9,66.0,40,29.83,10.0,South,8.1,-,N/A,,Clear,180,2013-06-27 00:53:00
8:53 PM,91.9,66.9,44,29.83,10.0,South,6.9,-,N/A,,Clear,180,2013-06-27 01:53:00
9:53 PM,90.0,66.9,46,29.85,10.0,SSE,5.8,-,N/A,,Clear,160,2013-06-27 02:53:00
10:53 PM,89.1,64.9,45,29.88,10.0,SSE,6.9,-,N/A,,Clear,160,2013-06-27 03:53:00
11:53 PM,87.1,64.9,48,29.89,10.0,SSE,5.8,-,N/A,,Clear,160,2013-06-27 04:53:00